Lexington Weather

Lexington, Massachusetts, USA

55°F
12/4/2020 12:57pm 
  • Lexington Conditions: Partly cloudy
  • Temperature: 54.9°F / 12.7°CWarmer 0.2°F than last hour.
  • Dew Point: 35.6°FIncreased 0.7°Fsince last hour.
  • Relative Humidity: 48%Increased 1.0% since last hour.
  • Wind: Wind from SW SW 5 mph, 10-min avg: 4 mph, gust: 9 mph
  • Barometer: 29.90 inFalling 0.03  inHg/hr Falling Slowly
  • Visibility: 10 miles
  • Rain Today: 0.00 in
  •   
Southeast Middlesex County - Winter Storm Watch
 - SEE ALL NEARBY ALERTS -

Regional Weather Roundup
for Boston / Norton, MA

        
000
ASUS41 KBOX 290904
RWRBOX

REGIONAL WEATHER ROUNDUP
NATIONAL WEATHER SERVICE BOSTON/NORTON MA
400 AM EST SUN NOV 29 2020

NOTE:  "FAIR" INDICATES FEW OR NO CLOUDS BELOW 12,000 FEET WITH NO 
SIGNIFICANT WEATHER AND/OR OBSTRUCTIONS TO VISIBILITY.

MAZALL-291000-
EASTERN MASSACHUSETTS
  
CITY           SKY/WX    TMP DP  RH WIND       PRES   REMARKS
BOSTON         PTCLDY    39  27  62 W8        30.05S                  
BEVERLY        CLEAR     37  29  72 CALM      30.03S                  
LAWRENCE       CLEAR     34  29  82 S3        30.06R                  
BEDFORD        CLEAR     28  25  88 NW5       30.04S WCI  23          
BLUE HILL        N/A     34  27  75 W13       30.01F WCI  25          
NORWOOD        CLEAR     31  27  85 CALM      30.05S                  
MARSHFIELD     CLEAR     34  30  86 CALM      30.05S                  
PLYMOUTH       CLEAR     31  28  89 SW3       30.05S                  
TAUNTON        CLEAR     29  26  89 CALM      30.06R                  
NEW BEDFORD    CLEAR     34  29  82 CALM      30.05F                  
$$

MAZALL-291000-
CAPE COD AND THE ISLANDS
  
CITY           SKY/WX    TMP DP  RH WIND       PRES   REMARKS
FALMOUTH       CLEAR     32  30  93 NW7       30.06S WCI  26          
HYANNIS        CLEAR     38  29  70 W5        30.04S                  
CHATHAM        CLEAR     40  32  73 W3        30.06R                  
PROVINCETOWN   CLEAR     42  34  73 W10       30.05S                  
NANTUCKET      CLEAR     43  33  68 NW8       30.06S                  
MARTHAS VNYRD  CLEAR     40  31  70 NW6       30.06F                  
$$
 
MAZALL-291000-
CENTRAL AND WESTERN MASSACHUSETTS
  
CITY           SKY/WX    TMP DP  RH WIND       PRES   REMARKS
WORCESTER      CLEAR     35  26  69 W13       30.03R WCI  26          
FITCHBURG      CLEAR     35  27  72 N7        30.05R WCI  29          
ORANGE         CLEAR     26  25  96 CALM      30.07R                  
SPRINGFIELD    CLEAR     29  28  96 CALM      30.07R                  
WESTFIELD      CLEAR     28  26  92 S3        30.07S                  
NORTH ADAMS    CLEAR     29  25  85 W3        30.07R                  
PITTSFIELD     CLEAR     26  24  92 CALM      30.04S                  
$$
 
RIZALL-291000-
RHODE ISLAND
  
CITY           SKY/WX    TMP DP  RH WIND       PRES   REMARKS
PROVIDENCE     CLEAR     32  28  85 SW3       30.07S                  
NEWPORT        CLEAR     38  29  70 CALM      30.07R                  
BLOCK ISLAND   CLEAR     41  30  65 NW9       30.09S                  
SMITHFIELD     CLEAR     34  29  82 W7        30.05S WCI  28          
WESTERLY       CLEAR     38  28  67 W3        30.09R                  
$$
 
CTZALL-291000-
CONNECTICUT
  
CITY           SKY/WX    TMP DP  RH WIND       PRES   REMARKS
BRADLEY INTL   CLEAR     31  27  85 CALM      30.09R                  
HARTFORD       CLEAR     33  29  85 CALM      30.10R                  
BRIDGEPORT     CLEAR     38  30  73 CALM      30.10S                  
DANBURY        CLEAR     29  26  89 CALM      30.09F                  
GROTON         CLEAR     33  28  81 CALM      30.08S                  
NEW HAVEN      CLEAR     34  30  85 CALM      30.10S                  
CHESTER        FAIR      37  28  70 CALM      30.08S                  
MERIDEN        CLEAR     30  27  88 CALM      30.10S FOG              
WILLIMANTIC    CLEAR     28  26  92 CALM      30.08S                  
OXFORD         CLEAR     29  28  96 CALM      30.08S                  
$$

MEZ002-015-021-024-NHZ003-005-008-011-012-014-VTZ005-008-291000-
NORTHERN NEW ENGLAND
  
CITY           SKY/WX    TMP DP  RH WIND       PRES   REMARKS
PORTLAND ME    CLEAR     34  31  88 W3        30.00R                  
BANGOR ME      MOCLDY    36  33  89 W5        29.94R                  
CONCORD NH     CLEAR     26  23  88 CALM      30.03R                  
MANCHESTER NH  CLEAR     31  26  82 CALM      30.02S                  
NASHUA NH      CLEAR     25  25 100 CALM      30.05R                  
PORTSMOUTH NH  CLEAR     33  28  82 SW6       30.01  WCI  27          
JAFFREY NH     CLEAR     29  25  85 CALM      30.03R                  
KEENE NH       CLEAR     23  22  96 CALM      30.06S                  
BURLINGTON VT  MOCLDY    37  29  72 S9        30.00F WCI  30          
MT. WASHINGTON BLWGSNOW  16  16 100 W61G68      N/A  VSB 0   WCI -10  
$$

NYZ052-076-291000-
EASTERN NEW YORK
  
CITY           SKY/WX    TMP DP  RH WIND       PRES   REMARKS
ALBANY         PTCLDY    25  25 100 CALM      30.10R                  
NEW YORK CITY  CLEAR     45  27  49 SW5       30.11S                  
$$
 
ANZALL-291000-
MARINE OBSERVATIONS
  
STATION/POSITION TIME  TEMP    WIND        PRES    VSBY  WAVE
                       AIR SEA DIR/SP/G                  HT/PER
                 (UTC) (F)     (DEG/KT/KT) (MB)    (MI)  (FT/S)
BOSTON BUOY      0840   43 50  260/ 12/ 14 1017.8R
BUZZARDS BAY     0800          300/ 12/ 13 1019.2S
NANTUCKET SOUND  0840      51  300/ 16/ 19   N/A
MASS BAY-STELLWA NOT AVBL
ISLE OF SHOALS   0800   40     270/ 18/ 19 1015.6R
S OF BLOCK IS    0826      57                N/A           4/ 5
$$

......................KEY.........................
  SKY/WX - SKY CONDITION/PRESENT WEATHER
  TMP    - TEMPERATURE IN FAHRENHEIT
  DWPT   - DEWPOINT IN FAHRENHEIT
  RH     - RELATIVE HUMIDITY IN PERCENT
  WIND   - DIRECTION AND SPEED IN MPH
  PRES   - MEAN SEA LEVEL PRESSURE IN INCHES OF HG
  WCI    - WIND CHILL INDEX
  VSB    - VISIBILITY IN MILES
  HX     - HEAT INDEX
  TC     - TEMPERATURE IN CELSIUS
  VRB    - VARIABLE WIND DIRECTION
  N/A    - NOT AVAILABLE
  
      

Other recent Regional Weather Roundups

Fri Dec 4, 12:04pm

Fri Dec 4, 11:04am

Fri Dec 4, 10:05am

Fri Dec 4, 9:04am

Fri Dec 4, 8:04am

Fri Dec 4, 7:04am

Fri Dec 4, 6:04am

Fri Dec 4, 5:04am

Fri Dec 4, 4:04am

Fri Dec 4, 3:04am

Fri Dec 4, 2:04am

Fri Dec 4, 1:04am

Fri Dec 4, 12:04am

Thu Dec 3, 11:04pm

Thu Dec 3, 10:04pm

Thu Dec 3, 9:04pm

Thu Dec 3, 8:04pm

Thu Dec 3, 7:04pm

Thu Dec 3, 6:04pm

Thu Dec 3, 5:04pm

Thu Dec 3, 4:05pm

Thu Dec 3, 3:04pm

Thu Dec 3, 2:04pm

Thu Dec 3, 1:04pm

Thu Dec 3, 12:04pm

Thu Dec 3, 11:04am

Thu Dec 3, 10:04am

Thu Dec 3, 9:04am

Thu Dec 3, 8:04am

Thu Dec 3, 7:04am

Thu Dec 3, 6:04am

Thu Dec 3, 5:04am

Thu Dec 3, 4:04am

Thu Dec 3, 3:04am

Thu Dec 3, 2:04am

Thu Dec 3, 1:04am

Thu Dec 3, 12:04am

Wed Dec 2, 11:04pm

Wed Dec 2, 10:04pm

Wed Dec 2, 9:04pm

Wed Dec 2, 8:04pm

Wed Dec 2, 7:04pm

Wed Dec 2, 6:05pm

Wed Dec 2, 5:04pm

Wed Dec 2, 4:05pm

Wed Dec 2, 3:05pm

Wed Dec 2, 2:04pm

Wed Dec 2, 1:04pm

Wed Dec 2, 12:04pm

Wed Dec 2, 11:04am

Wed Dec 2, 10:04am

Wed Dec 2, 9:05am

Wed Dec 2, 8:04am

Wed Dec 2, 7:04am

Wed Dec 2, 6:04am

Wed Dec 2, 5:04am

Wed Dec 2, 4:04am

Wed Dec 2, 3:04am

Wed Dec 2, 2:04am

Wed Dec 2, 1:04am

Wed Dec 2, 12:04am

Tue Dec 1, 11:04pm

Tue Dec 1, 10:04pm

Tue Dec 1, 9:04pm

Tue Dec 1, 8:04pm

Tue Dec 1, 7:04pm

Tue Dec 1, 6:05pm

Tue Dec 1, 5:04pm

Tue Dec 1, 4:05pm

Tue Dec 1, 3:04pm

Tue Dec 1, 2:04pm

Tue Dec 1, 12:04pm

Tue Dec 1, 11:04am

Tue Dec 1, 10:04am

Tue Dec 1, 9:04am

Tue Dec 1, 8:04am

Tue Dec 1, 7:04am

Tue Dec 1, 6:04am

Tue Dec 1, 5:05am

Tue Dec 1, 4:04am

Tue Dec 1, 3:04am

Tue Dec 1, 2:04am

Tue Dec 1, 1:04am

Tue Dec 1, 12:04am

Mon Nov 30, 11:04pm

Mon Nov 30, 10:04pm

Mon Nov 30, 9:04pm

Mon Nov 30, 8:04pm

Mon Nov 30, 7:05pm

Mon Nov 30, 6:04pm

Mon Nov 30, 5:05pm

Mon Nov 30, 4:04pm

Mon Nov 30, 3:05pm

Mon Nov 30, 2:05pm

Mon Nov 30, 1:04pm

Mon Nov 30, 12:05pm

Mon Nov 30, 11:04am

Mon Nov 30, 10:04am

Mon Nov 30, 9:04am

Mon Nov 30, 8:04am

Mon Nov 30, 7:05am

Mon Nov 30, 6:04am

Mon Nov 30, 5:05am

Mon Nov 30, 4:04am

Mon Nov 30, 3:04am

Mon Nov 30, 2:04am

Mon Nov 30, 1:04am

Mon Nov 30, 12:04am

Sun Nov 29, 11:04pm

Sun Nov 29, 10:04pm

Sun Nov 29, 9:04pm

Sun Nov 29, 8:04pm

Sun Nov 29, 7:04pm

Sun Nov 29, 6:04pm

Sun Nov 29, 5:04pm

Sun Nov 29, 4:05pm

Sun Nov 29, 3:04pm

Sun Nov 29, 2:04pm

Sun Nov 29, 1:04pm

Sun Nov 29, 12:04pm

Sun Nov 29, 11:04am

Sun Nov 29, 10:04am

Sun Nov 29, 9:04am

Sun Nov 29, 8:05am

Sun Nov 29, 7:04am

Sun Nov 29, 6:04am

Sun Nov 29, 5:04am

Sun Nov 29, 3:04am

Sun Nov 29, 2:05am

Sun Nov 29, 1:04am

Sun Nov 29, 12:04am

Sat Nov 28, 11:04pm

Sat Nov 28, 10:04pm

Sat Nov 28, 9:04pm

Sat Nov 28, 8:04pm

Sat Nov 28, 7:04pm

Sat Nov 28, 6:04pm

Sat Nov 28, 5:04pm

Sat Nov 28, 4:04pm

Sat Nov 28, 3:04pm

Sat Nov 28, 2:04pm

Sat Nov 28, 1:04pm

Sat Nov 28, 12:04pm

Sat Nov 28, 11:04am

Sat Nov 28, 10:04am

Sat Nov 28, 9:04am

Sat Nov 28, 8:04am

Sat Nov 28, 7:04am

Sat Nov 28, 6:04am

Sat Nov 28, 5:04am

Sat Nov 28, 4:04am

Sat Nov 28, 3:05am

Sat Nov 28, 2:04am

Sat Nov 28, 1:04am

Sat Nov 28, 12:04am

Fri Nov 27, 11:05pm

Fri Nov 27, 10:04pm

Fri Nov 27, 9:04pm

Fri Nov 27, 8:04pm

Fri Nov 27, 7:04pm

Fri Nov 27, 6:04pm

Fri Nov 27, 5:04pm

Fri Nov 27, 4:05pm

Fri Nov 27, 3:05pm

Fri Nov 27, 2:05pm

Fri Nov 27, 1:04pm

Meta data:

ID: a14517f9-8338-4ce2-9e6a-e6a14abc39f6
Link: https://api.weather.gov/products/a14517f9-8338-4ce2-9e6a-e6a14abc39f6